Tracking 19832 objects as of 24-Aug-2019
HD Live streaming from Space Station
objects crossing your sky now

COSMOS 2251 DEB

Track COSMOS 2251 DEB now!
10-day predictions


NORAD ID: 36479
Int'l Code: 1993-036BCE
Perigee: 522.6 km
Apogee: 588.2 km
Inclination: 74.0 °
Period: 95.6 minutes
Semi major axis: 6926 km
RCS: 0.0084 m2 (small)
Launch date: June 16, 1993
Source: Commonwealth of Independent States (former USSR) (CIS)
Launch site: PLESETSK MISSILE AND SPACE COMPLEX (PKMTR)

Note: This is SATELLITE DEBRIS
aabbcc
Your satellite tracking list
Your tracking list is empty




NASA's NSSDC Master Catalog

Two Line Element Set (TLE):
1 36479U 93036BCE 19235.33072478  .00001505  00000-0  10368-3 0  9996
2 36479  74.0275   3.0636 0047363 310.2676  49.4376 15.06060506540452
Source of the keplerian elements: AFSPC